Wind_Speed
37 36 40 40 43 46 48 50 51 53 56 58 60 61 63 63 62 61 58 56 52 49 46 45 44 44 42
36 38 40 40 44 46 48 51 54 55 56 59 59 56 55 53 51 49 48 47 46 45 44 43 42 41 40
38 40 42 43 44 47 51 52 54 53 52 51 47 43 41 41 42 43 44 44 44 44 44 43 41 39 36
39 40 43 45 49 52 53 53 52 44 40 37 36 36 36 39 41 42 43 45 45 45 44 43 41 40 38
38 42 46 48 51 53 53 51 43 32 32 31 31 33 34 36 37 39 41 44 45 46 46 45 45 43 42
42 46 48 49 50 49 46 41 34 29 33 35 34 35 36 37 37 37 37 39 40 41 42 42 42 42 41
46 46 48 47 48 41 33 32 32 32 36 39 35 35 35 34 32 33 35 36 36 38 39 39 39 40 39
45 45 44 40 35 30 30 33 35 32 36 43 34 36 33 30 27 27 27 29 31 34 35 36 38 40 40
43 41 35 28 27 29 31 34 36 31 33 42 35 38 33 26 24 22 23 25 26 28 33 37 38 39 40
33 28 24 23 26 29 31 34 36 36 36 44 39 39 39 28 26 25 23 23 25 28 31 34 37 39 39
19 17 19 22 25 27 30 33 34 34 34 43 43 41 42 40 30 27 25 23 24 25 28 30 32 35 35
15 17 19 21 23 25 28 30 33 36 34 38 42 42 42 40 34 25 24 24 23 25 26 27 29 32 34
16 19 21 22 25 26 28 29 28 30 32 35 38 38 39 38 39 30 30 21 24 26 28 27 26 28 28
16 19 21 22 25 28 28 29 26 23 27 31 34 35 35 36 34 30 28 32 26 25 28 27 27 27 26
19 20 21 22 24 28 30 30 30 28 26 27 32 34 33 31 29 26 22 19 23 24 25 25 23 24 25
20 21 23 25 27 28 31 32 32 31 30 30 30 29 27 26 27 18 16 17 17 23 27 29 26 18 22
21 23 26 27 29 30 31 31 31 32 30 30 31 33 31 28 22 21 21 24 26 27 29 29 28 26 22
Wind_Direction
280 285 288 292 291 292 293 295 296 296 296 294 293 294 294 294 292 291 289 287 287 285 283 277 274 269 267
289 290 292 293 292 294 293 295 296 296 297 298 298 297 294 294 294 293 292 290 286 283 280 279 276 271 269
294 290 294 295 294 295 295 297 298 302 302 298 298 299 299 297 295 293 291 289 288 285 281 278 275 273 270
292 298 297 297 298 298 298 301 305 305 301 301 301 302 302 299 298 298 295 290 287 285 282 279 277 274 271
297 298 297 299 298 301 305 307 304 306 301 302 302 301 301 299 298 295 292 289 286 283 281 280 278 275 273
297 297 298 300 304 307 307 303 306 306 305 306 308 307 307 307 304 300 296 290 287 283 279 276 275 274 273
299 301 304 307 306 302 300 300 306 315 313 307 314 314 314 315 308 302 299 295 290 286 284 279 275 272 269
304 306 304 303 301 301 304 311 316 322 315 306 317 313 315 320 314 309 305 300 290 285 281 275 272 270 269
305 302 300 300 302 307 312 313 312 319 314 308 318 314 318 326 321 315 303 296 291 282 278 276 275 274 273
300 298 300 305 309 311 312 314 317 321 320 313 322 322 322 334 329 327 314 300 291 285 281 277 276 275 274
300 300 307 310 310 312 314 315 318 320 321 315 321 323 322 327 334 329 317 304 295 289 282 279 278 278 277
314 312 313 313 312 314 316 319 322 321 321 315 318 320 322 325 329 333 320 315 307 295 290 284 281 280 281
321 321 320 321 320 323 322 322 323 319 317 314 314 317 318 322 324 333 320 319 312 305 299 298 295 288 284
326 326 326 329 326 327 329 326 327 321 319 316 316 318 320 322 324 329 326 325 325 317 312 312 305 298 289
332 332 332 334 334 332 333 333 333 331 327 320 318 318 320 322 323 322 322 330 332 341 339 336 320 303 293
332 333 334 334 333 331 332 334 334 332 329 324 322 320 320 325 330 327 331 331 342 341 340 343 352 326 299
333 332 333 333 333 335 332 332 333 332 330 327 329 327 325 329 336 331 322 324 324 328 331 335 336 344 328
Height
3053 3050 3049 3046 3043 3038 3033 3028 3023 3019 3014 3007 3001 2995 2989 2983 2978 2973 2969 2965 2962 2959 2957 2955 2954 2954 2955
3044 3041 3039 3035 3030 3026 3022 3017 3010 3004 2998 2990 2984 2978 2971 2966 2961 2957 2954 2951 2948 2945 2943 2943 2941 2941 2940
3032 3029 3026 3023 3018 3014 3008 3003 2996 2989 2982 2974 2968 2963 2958 2954 2949 2945 2941 2938 2935 2932 2930 2929 2927 2927 2928
3020 3016 3014 3010 3003 2998 2993 2986 2980 2977 2969 2962 2957 2952 2948 2942 2937 2933 2929 2925 2921 2919 2916 2914 2913 2913 2914
3011 3007 3002 2995 2990 2984 2976 2970 2968 2965 2958 2954 2950 2944 2939 2934 2929 2923 2918 2912 2908 2905 2902 2900 2899 2898 2898
3001 2996 2989 2983 2976 2970 2965 2959 2956 2955 2947 2942 2936 2932 2927 2921 2916 2911 2907 2902 2897 2892 2889 2887 2885 2885 2884
2989 2983 2975 2968 2964 2961 2957 2951 2947 2943 2935 2927 2925 2920 2915 2911 2906 2900 2893 2889 2885 2882 2878 2876 2873 2872 2872
2975 2967 2962 2959 2954 2950 2945 2939 2935 2932 2925 2914 2917 2911 2907 2902 2896 2890 2884 2878 2874 2870 2866 2863 2861 2859 2859
2963 2958 2954 2951 2946 2941 2937 2931 2927 2926 2918 2907 2908 2898 2896 2894 2888 2881 2875 2870 2865 2860 2856 2853 2850 2849 2848
2955 2950 2947 2943 2939 2934 2929 2924 2918 2914 2907 2896 2896 2890 2880 2883 2877 2871 2866 2861 2855 2851 2847 2843 2841 2838 2837
2947 2945 2941 2938 2934 2929 2924 2918 2912 2907 2901 2889 2886 2881 2874 2867 2868 2863 2857 2853 2848 2844 2839 2835 2832 2829 2827
2941 2939 2937 2933 2929 2925 2919 2914 2906 2898 2894 2886 2878 2873 2866 2861 2856 2855 2848 2843 2838 2834 2830 2827 2823 2820 2818
2937 2934 2931 2927 2922 2918 2913 2907 2903 2895 2888 2880 2873 2867 2860 2854 2846 2845 2837 2837 2831 2825 2821 2818 2816 2812 2810
2933 2929 2926 2922 2916 2910 2906 2901 2897 2893 2883 2875 2868 2860 2855 2848 2842 2837 2833 2825 2825 2819 2814 2810 2806 2803 2800
2928 2924 2921 2917 2912 2906 2900 2895 2887 2882 2878 2871 2862 2855 2849 2843 2837 2832 2827 2824 2818 2813 2808 2804 2800 2794 2790
2924 2920 2916 2912 2907 2902 2895 2888 2881 2875 2869 2863 2857 2851 2845 2839 2832 2828 2823 2818 2814 2809 2803 2797 2794 2787 2782
2920 2916 2911 2907 2901 2895 2889 2883 2876 2869 2864 2856 2848 2841 2835 2831 2828 2822 2817 2812 2808 2804 2798 2793 2787 2783 2776